Location: Austin
(30.3000°N, 97.7500°W)
Time: 20:46:13
(UTC-06:00)

Cosmos 1939 Rocket - Pass Details

Date: 31 October 2024
Orbit: 506 x 550 km, 97.5° (Epoch: 05 November)

Event Time Altitude Azimuth Distance (km) Brightness Sun altitude
Rises 06:49:25 0° 350° (N) 2,613 6.1 -12.5°
Reaches altitude 10° 06:52:05 10° 329° (NNW) 1,721 5.0 -12.0°
Enters shadow 06:54:02 16° 297° (WNW) 1,375 4.3 -11.5°
